Time,TemperatureF,DewpointF,PressureIn,WindDirection,WindDirectionDegrees,WindSpeedMPH,WindSpeedGustMPH,Humidity,HourlyPrecipIn,Conditions,Clouds,dailyrainin,SoftwareType,DateUTC
2013-09-04 00:02:00,62.7,58.8,29.97,West,270,1.0,2.0,87,0.00,,SCT120,0.00,VWS V14.01,2013-09-04 05:02:00,
2013-09-04 00:07:00,62.5,58.6,29.97,West,276,1.0,2.0,87,0.00,,SCT120,0.00,VWS V14.01,2013-09-04 05:07:00,
2013-09-04 00:12:00,62.3,58.4,29.97,West,278,2.0,3.0,87,0.00,,SCT120,0.00,VWS V14.01,2013-09-04 05:12:00,
2013-09-04 00:17:00,62.2,58.6,29.97,West,266,1.0,3.0,88,0.00,,SCT120,0.00,VWS V14.01,2013-09-04 05:17:00,
2013-09-04 00:22:00,62.1,58.5,29.97,WSW,257,1.0,3.0,88,0.00,,SCT120,0.00,VWS V14.01,2013-09-04 05:22:00,
2013-09-04 00:27:00,61.8,58.5,29.97,West,262,1.0,3.0,89,0.00,,SCT120,0.00,VWS V14.01,2013-09-04 05:27:00,
2013-09-04 00:32:00,61.7,58.4,29.97,West,259,1.0,1.0,89,0.00,,SCT120,0.00,VWS V14.01,2013-09-04 05:32:00,
2013-09-04 00:37:00,61.7,58.4,29.96,West,281,1.0,2.0,89,0.00,,SCT120,0.00,VWS V14.01,2013-09-04 05:37:00,
2013-09-04 00:42:00,61.7,58.4,29.97,West,259,1.0,2.0,89,0.00,,SCT120,0.00,VWS V14.01,2013-09-04 05:42:00,
2013-09-04 00:47:00,61.6,58.3,29.97,West,271,1.0,2.0,89,0.00,,SCT120,0.00,VWS V14.01,2013-09-04 05:47:00,
2013-09-04 00:52:00,61.3,58.3,29.97,West,275,0.0,2.0,90,0.00,,SCT120,0.00,VWS V14.01,2013-09-04 05:52:00,
2013-09-04 00:57:00,61.1,58.2,29.97,West,262,1.0,2.0,90,0.00,,SCT120,0.00,VWS V14.01,2013-09-04 05:57:00,
2013-09-04 01:02:00,61.0,58.0,29.97,West,267,0.0,2.0,90,0.00,,SCT120,0.00,VWS V14.01,2013-09-04 06:02:00,
2013-09-04 01:07:00,61.0,58.4,29.97,WNW,284,1.0,2.0,91,0.00,,SCT120,0.00,VWS V14.01,2013-09-04 06:07:00,
2013-09-04 01:12:00,61.1,58.5,29.97,West,278,1.0,2.0,91,0.00,,SCT120,0.00,VWS V14.01,2013-09-04 06:12:00,
2013-09-04 01:17:00,61.0,58.4,29.97,West,262,1.0,2.0,91,0.00,,SCT120,0.00,VWS V14.01,2013-09-04 06:17:00,
2013-09-04 01:22:00,60.9,58.3,29.97,West,259,1.0,2.0,91,0.00,,SCT120,0.00,VWS V14.01,2013-09-04 06:22:00,
2013-09-04 01:27:00,60.9,58.3,29.97,West,278,2.0,2.0,91,0.00,,SCT120,0.00,VWS V14.01,2013-09-04 06:27:00,
2013-09-04 01:32:00,60.8,58.2,29.97,West,275,1.0,3.0,91,0.00,,BKN120,0.00,VWS V14.01,2013-09-04 06:32:00,
2013-09-04 01:37:00,60.7,58.1,29.97,WSW,250,3.0,3.0,91,0.00,,BKN120,0.00,VWS V14.01,2013-09-04 06:37:00,
2013-09-04 01:42:00,60.6,58.0,29.97,West,262,2.0,3.0,91,0.00,,BKN120,0.00,VWS V14.01,2013-09-04 06:42:00,
2013-09-04 01:47:00,60.5,58.2,29.97,West,264,0.0,3.0,92,0.00,,SCT120,0.00,VWS V14.01,2013-09-04 06:47:00,
2013-09-04 01:52:00,60.4,58.1,29.97,West,260,1.0,3.0,92,0.00,,SCT120,0.00,VWS V14.01,2013-09-04 06:52:00,
2013-09-04 01:57:00,60.3,58.0,29.97,WSW,255,0.0,3.0,92,0.00,,SCT120,0.00,VWS V14.01,2013-09-04 06:57:00,
2013-09-04 02:02:00,60.2,57.9,29.97,West,260,1.0,2.0,92,0.00,,SCT120,0.00,VWS V14.01,2013-09-04 07:02:00,
2013-09-04 02:07:00,60.3,58.0,29.97,WSW,255,1.0,2.0,92,0.00,,SCT120,0.00,VWS V14.01,2013-09-04 07:07:00,
2013-09-04 02:12:00,60.3,58.3,29.97,West,262,1.0,2.0,93,0.00,,SCT120,0.00,VWS V14.01,2013-09-04 07:12:00,
2013-09-04 02:17:00,60.2,57.9,29.97,West,260,1.0,2.0,92,0.00,,SCT120,0.00,VWS V14.01,2013-09-04 07:17:00,
2013-09-04 02:22:00,60.1,58.1,29.98,West,267,1.0,2.0,93,0.00,,SCT120,0.00,VWS V14.01,2013-09-04 07:22:00,
2013-09-04 02:27:00,60.0,58.0,29.97,West,266,0.0,2.0,93,0.00,,SCT120,0.00,VWS V14.01,2013-09-04 07:27:00,
2013-09-04 02:32:00,59.7,57.7,29.97,WSW,244,0.0,1.0,93,0.00,,BKN120,0.00,VWS V14.01,2013-09-04 07:32:00,
2013-09-04 02:37:00,59.6,57.6,29.97,WSW,245,1.0,1.0,93,0.00,,BKN120,0.00,VWS V14.01,2013-09-04 07:37:00,
2013-09-04 02:42:00,59.4,57.4,29.97,WSW,245,0.0,1.0,93,0.00,,BKN120,0.00,VWS V14.01,2013-09-04 07:42:00,
2013-09-04 02:47:00,59.4,57.4,29.97,WSW,250,0.0,1.0,93,0.00,,BKN120,0.00,VWS V14.01,2013-09-04 07:47:00,
2013-09-04 02:52:00,59.3,57.6,29.97,WSW,255,2.0,2.0,94,0.00,,BKN120,0.00,VWS V14.01,2013-09-04 07:52:00,
2013-09-04 02:57:00,59.5,57.8,29.98,West,260,2.0,3.0,94,0.00,,BKN120,0.00,VWS V14.01,2013-09-04 07:57:00,
2013-09-04 03:02:00,59.5,57.8,29.97,West,260,0.0,2.0,94,0.00,,BKN120,0.00,VWS V14.01,2013-09-04 08:02:00,
2013-09-04 03:07:00,59.5,57.8,29.97,West,275,2.0,2.0,94,0.00,,BKN120,0.00,VWS V14.01,2013-09-04 08:07:00,
2013-09-04 03:12:00,59.5,57.8,29.98,West,269,1.0,3.0,94,0.00,,BKN120,0.00,VWS V14.01,2013-09-04 08:12:00,
2013-09-04 03:17:00,59.5,57.8,29.98,West,269,1.0,3.0,94,0.00,,BKN120,0.00,VWS V14.01,2013-09-04 08:17:00,
2013-09-04 03:22:00,59.6,57.9,29.98,West,281,1.0,3.0,94,0.00,,BKN120,0.00,VWS V14.01,2013-09-04 08:22:00,
2013-09-04 03:27:00,59.5,57.8,29.98,WSW,255,0.0,3.0,94,0.00,,BKN120,0.00,VWS V14.01,2013-09-04 08:27:00,
2013-09-04 03:32:00,59.5,57.8,29.98,WSW,255,0.0,1.0,94,0.00,,SCT120,0.00,VWS V14.01,2013-09-04 08:32:00,
2013-09-04 03:37:00,59.3,57.3,29.97,WSW,255,0.0,1.0,93,0.00,,SCT120,0.00,VWS V14.01,2013-09-04 08:37:00,
2013-09-04 03:42:00,59.2,57.5,29.98,WSW,255,0.0,1.0,94,0.00,,SCT120,0.00,VWS V14.01,2013-09-04 08:42:00,
2013-09-04 03:47:00,59.2,57.5,29.98,WSW,248,0.0,1.0,94,0.00,,SCT120,0.00,VWS V14.01,2013-09-04 08:47:00,
2013-09-04 03:52:00,59.2,57.5,29.98,WSW,249,0.0,1.0,94,0.00,,SCT120,0.00,VWS V14.01,2013-09-04 08:52:00,
2013-09-04 03:57:00,59.1,57.4,29.98,WSW,249,1.0,1.0,94,0.00,,SCT120,0.00,VWS V14.01,2013-09-04 08:57:00,
2013-09-04 04:02:00,59.1,57.4,29.98,WSW,249,0.0,1.0,94,0.00,,SCT120,0.00,VWS V14.01,2013-09-04 09:02:00,
2013-09-04 04:07:00,59.0,57.3,29.98,WSW,249,0.0,1.0,94,0.00,,SCT120,0.00,VWS V14.01,2013-09-04 09:07:00,
2013-09-04 04:12:00,58.9,57.2,29.98,WSW,249,0.0,1.0,94,0.00,,SCT120,0.00,VWS V14.01,2013-09-04 09:12:00,
2013-09-04 04:17:00,58.9,57.2,29.99,West,261,0.0,1.0,94,0.00,,SCT120,0.00,VWS V14.01,2013-09-04 09:17:00,
2013-09-04 04:22:00,58.8,57.1,29.99,West,264,0.0,1.0,94,0.00,,SCT120,0.00,VWS V14.01,2013-09-04 09:22:00,
2013-09-04 04:27:00,58.8,57.1,29.99,West,281,1.0,1.0,94,0.00,,SCT120,0.00,VWS V14.01,2013-09-04 09:27:00,
2013-09-04 04:32:00,58.7,57.0,29.98,West,278,1.0,2.0,94,0.00,,CLR,0.00,VWS V14.01,2013-09-04 09:32:00,
2013-09-04 04:37:00,58.7,57.0,29.98,West,260,1.0,2.0,94,0.00,,CLR,0.00,VWS V14.01,2013-09-04 09:37:00,
2013-09-04 04:42:00,58.6,56.9,29.98,West,259,0.0,2.0,94,0.00,,CLR,0.00,VWS V14.01,2013-09-04 09:42:00,
2013-09-04 04:47:00,58.5,57.1,29.98,West,264,2.0,3.0,95,0.00,,CLR,0.00,VWS V14.01,2013-09-04 09:47:00,
2013-09-04 04:52:00,58.6,57.2,29.98,WSW,248,2.0,3.0,95,0.00,,CLR,0.00,VWS V14.01,2013-09-04 09:52:00,
2013-09-04 04:57:00,58.5,57.1,29.99,West,270,0.0,3.0,95,0.00,,CLR,0.00,VWS V14.01,2013-09-04 09:57:00,
2013-09-04 05:02:00,58.4,57.0,29.99,WSW,248,0.0,1.0,95,0.00,,CLR,0.00,VWS V14.01,2013-09-04 10:02:00,
2013-09-04 05:07:00,58.3,56.6,30.00,WSW,248,0.0,1.0,94,0.00,,CLR,0.00,VWS V14.01,2013-09-04 10:07:00,
2013-09-04 05:12:00,58.3,56.9,30.00,WSW,248,0.0,1.0,95,0.00,,CLR,0.00,VWS V14.01,2013-09-04 10:12:00,
2013-09-04 05:17:00,58.2,56.8,30.00,WSW,248,0.0,1.0,95,0.00,,CLR,0.00,VWS V14.01,2013-09-04 10:17:00,
2013-09-04 05:22:00,58.4,57.0,30.00,WSW,248,0.0,1.0,95,0.00,,CLR,0.00,VWS V14.01,2013-09-04 10:22:00,
2013-09-04 05:27:00,58.3,56.9,30.00,WSW,248,0.0,1.0,95,0.00,,CLR,0.00,VWS V14.01,2013-09-04 10:27:00,
2013-09-04 05:32:00,58.2,56.8,30.00,WSW,248,0.0,0.0,95,0.00,,CLR,0.00,VWS V14.01,2013-09-04 10:32:00,
2013-09-04 05:37:00,58.1,56.7,30.00,WSW,248,0.0,1.0,95,0.00,,CLR,0.00,VWS V14.01,2013-09-04 10:37:00,
2013-09-04 05:42:00,58.1,56.7,30.00,WSW,248,0.0,1.0,95,0.00,,CLR,0.00,VWS V14.01,2013-09-04 10:42:00,
2013-09-04 05:47:00,58.2,56.8,30.00,WSW,248,0.0,1.0,95,0.00,,CLR,0.00,VWS V14.01,2013-09-04 10:47:00,
2013-09-04 05:52:00,58.2,57.1,30.00,WSW,248,0.0,1.0,96,0.00,,CLR,0.00,VWS V14.01,2013-09-04 10:52:00,
2013-09-04 05:57:00,58.3,56.9,30.00,WSW,248,0.0,1.0,95,0.00,,CLR,0.00,VWS V14.01,2013-09-04 10:57:00,
2013-09-04 06:02:00,58.3,56.9,30.00,WSW,255,1.0,1.0,95,0.00,,CLR,0.00,VWS V14.01,2013-09-04 11:02:00,
2013-09-04 06:07:00,58.2,56.8,30.00,WSW,256,1.0,1.0,95,0.00,,CLR,0.00,VWS V14.01,2013-09-04 11:07:00,
2013-09-04 06:12:00,58.2,56.8,30.00,West,277,1.0,1.0,95,0.00,,CLR,0.00,VWS V14.01,2013-09-04 11:12:00,
2013-09-04 06:17:00,58.1,56.7,30.00,West,277,1.0,1.0,95,0.00,,CLR,0.00,VWS V14.01,2013-09-04 11:17:00,
2013-09-04 06:22:00,58.2,57.1,30.00,West,271,0.0,2.0,96,0.00,,CLR,0.00,VWS V14.01,2013-09-04 11:22:00,
2013-09-04 06:27:00,58.3,57.2,30.01,West,267,0.0,2.0,96,0.00,,CLR,0.00,VWS V14.01,2013-09-04 11:27:00,
2013-09-04 06:32:00,58.3,56.9,30.01,West,267,0.0,1.0,95,0.00,,CLR,0.00,VWS V14.01,2013-09-04 11:32:00,
2013-09-04 06:37:00,58.3,56.9,30.01,West,266,0.0,1.0,95,0.00,,CLR,0.00,VWS V14.01,2013-09-04 11:37:00,
2013-09-04 06:42:00,58.2,56.8,30.01,West,266,0.0,1.0,95,0.00,,CLR,0.00,VWS V14.01,2013-09-04 11:42:00,
2013-09-04 06:47:00,58.2,56.8,30.02,West,259,1.0,1.0,95,0.00,,CLR,0.00,VWS V14.01,2013-09-04 11:47:00,
2013-09-04 06:52:00,58.2,57.1,30.02,WSW,250,0.0,1.0,96,0.00,,CLR,0.00,VWS V14.01,2013-09-04 11:52:00,
2013-09-04 06:57:00,58.2,57.1,30.02,WNW,290,0.0,1.0,96,0.00,,CLR,0.00,VWS V14.01,2013-09-04 11:57:00,
2013-09-04 07:02:00,58.4,57.3,30.02,West,277,0.0,1.0,96,0.00,,CLR,0.00,VWS V14.01,2013-09-04 12:02:00,
2013-09-04 07:07:00,58.4,57.3,30.02,West,277,0.0,1.0,96,0.00,,CLR,0.00,VWS V14.01,2013-09-04 12:07:00,
2013-09-04 07:12:00,58.5,57.1,30.02,West,276,0.0,1.0,95,0.00,,CLR,0.00,VWS V14.01,2013-09-04 12:12:00,
2013-09-04 07:17:00,58.5,57.1,30.02,West,277,0.0,1.0,95,0.00,,CLR,0.00,VWS V14.01,2013-09-04 12:17:00,
2013-09-04 07:22:00,58.6,57.2,30.02,West,276,0.0,1.0,95,0.00,,CLR,0.00,VWS V14.01,2013-09-04 12:22:00,
2013-09-04 07:27:00,58.7,57.3,30.02,West,277,0.0,1.0,95,0.00,,CLR,0.00,VWS V14.01,2013-09-04 12:27:00,
2013-09-04 07:32:00,58.7,57.3,30.02,West,277,0.0,1.0,95,0.00,,CLR,0.00,VWS V14.01,2013-09-04 12:32:00,
2013-09-04 07:37:00,58.8,57.4,30.02,West,277,0.0,1.0,95,0.00,,CLR,0.00,VWS V14.01,2013-09-04 12:37:00,
2013-09-04 07:42:00,59.0,57.9,30.02,West,277,0.0,1.0,96,0.00,,CLR,0.00,VWS V14.01,2013-09-04 12:42:00,
2013-09-04 07:47:00,59.1,57.7,30.03,West,277,0.0,1.0,95,0.00,,CLR,0.00,VWS V14.01,2013-09-04 12:47:00,
2013-09-04 07:52:00,59.3,58.2,30.03,West,277,0.0,1.0,96,0.00,,CLR,0.00,VWS V14.01,2013-09-04 12:52:00,
2013-09-04 07:57:00,59.6,58.5,30.03,West,276,1.0,1.0,96,0.00,,CLR,0.00,VWS V14.01,2013-09-04 12:57:00,
2013-09-04 08:02:00,59.8,58.7,30.03,West,273,1.0,1.0,96,0.00,,CLR,0.00,VWS V14.01,2013-09-04 13:02:00,
2013-09-04 08:07:00,60.1,58.7,30.03,WSW,250,0.0,2.0,95,0.00,,CLR,0.00,VWS V14.01,2013-09-04 13:07:00,
2013-09-04 08:12:00,60.4,59.0,30.03,WSW,250,1.0,2.0,95,0.00,,CLR,0.00,VWS V14.01,2013-09-04 13:12:00,
2013-09-04 08:17:00,60.7,59.6,30.03,WSW,250,0.0,2.0,96,0.00,,CLR,0.00,VWS V14.01,2013-09-04 13:17:00,
2013-09-04 08:22:00,61.2,59.8,30.03,WSW,250,0.0,2.0,95,0.00,,CLR,0.00,VWS V14.01,2013-09-04 13:22:00,
2013-09-04 08:27:00,61.6,60.2,30.04,WSW,250,0.0,2.0,95,0.00,,CLR,0.00,VWS V14.01,2013-09-04 13:27:00,
2013-09-04 08:32:00,62.1,60.7,30.04,WSW,250,0.0,0.0,95,0.00,,CLR,0.00,VWS V14.01,2013-09-04 13:32:00,
2013-09-04 08:37:00,62.6,61.2,30.03,NNE,19,0.0,1.0,95,0.00,,CLR,0.00,VWS V14.01,2013-09-04 13:37:00,
2013-09-04 08:42:00,63.1,61.3,30.03,North,6,0.0,1.0,94,0.00,,CLR,0.00,VWS V14.01,2013-09-04 13:42:00,
2013-09-04 08:47:00,63.7,62.0,30.03,ENE,71,0.0,1.0,94,0.00,,CLR,0.00,VWS V14.01,2013-09-04 13:47:00,
2013-09-04 08:52:00,64.2,62.1,30.03,SE,126,0.0,1.0,93,0.00,,CLR,0.00,VWS V14.01,2013-09-04 13:52:00,
2013-09-04 08:57:00,64.6,62.2,30.03,NW,305,4.0,4.0,92,0.00,,CLR,0.00,VWS V14.01,2013-09-04 13:57:00,
2013-09-04 09:02:00,65.0,62.3,30.03,ENE,58,0.0,4.0,91,0.00,,CLR,0.00,VWS V14.01,2013-09-04 14:02:00,
2013-09-04 09:07:00,65.4,62.4,30.04,ESE,108,1.0,4.0,90,0.00,,CLR,0.00,VWS V14.01,2013-09-04 14:07:00,
2013-09-04 09:12:00,65.7,62.4,30.03,East,91,0.0,4.0,89,0.00,,CLR,0.00,VWS V14.01,2013-09-04 14:12:00,
2013-09-04 09:17:00,66.1,62.5,30.04,East,100,0.0,4.0,88,0.00,,CLR,0.00,VWS V14.01,2013-09-04 14:17:00,
2013-09-04 09:22:00,66.4,62.7,30.04,NNW,340,1.0,4.0,88,0.00,,CLR,0.00,VWS V14.01,2013-09-04 14:22:00,
2013-09-04 09:27:00,66.8,62.8,30.04,North,5,0.0,4.0,87,0.00,,CLR,0.00,VWS V14.01,2013-09-04 14:27:00,
2013-09-04 09:32:00,67.1,63.1,30.04,ESE,120,0.0,1.0,87,0.00,,CLR,0.00,VWS V14.01,2013-09-04 14:32:00,
2013-09-04 09:37:00,67.5,63.2,30.04,NE,34,1.0,4.0,86,0.00,,CLR,0.00,VWS V14.01,2013-09-04 14:37:00,
2013-09-04 09:42:00,68.0,63.3,30.04,East,98,0.0,4.0,85,0.00,,CLR,0.00,VWS V14.01,2013-09-04 14:42:00,
2013-09-04 09:47:00,68.4,63.7,30.04,ENE,61,1.0,5.0,85,0.00,,CLR,0.00,VWS V14.01,2013-09-04 14:47:00,
2013-09-04 09:52:00,68.7,63.3,30.04,ENE,74,0.0,5.0,83,0.00,,CLR,0.00,VWS V14.01,2013-09-04 14:52:00,
2013-09-04 09:57:00,69.0,63.6,30.04,ENE,67,0.0,5.0,83,0.00,,CLR,0.00,VWS V14.01,2013-09-04 14:57:00,
2013-09-04 10:02:00,69.5,63.8,30.04,ENE,74,0.0,3.0,82,0.00,,CLR,0.00,VWS V14.01,2013-09-04 15:02:00,
2013-09-04 10:07:00,70.1,64.4,30.05,SSE,153,0.0,4.0,82,0.00,,CLR,0.00,VWS V14.01,2013-09-04 15:07:00,
2013-09-04 10:12:00,70.4,63.9,30.05,NE,36,0.0,4.0,80,0.00,,CLR,0.00,VWS V14.01,2013-09-04 15:12:00,
2013-09-04 10:17:00,70.8,64.0,30.05,East,92,2.0,4.0,79,0.00,,CLR,0.00,VWS V14.01,2013-09-04 15:17:00,
2013-09-04 10:22:00,71.2,64.0,30.05,East,85,1.0,4.0,78,0.00,,CLR,0.00,VWS V14.01,2013-09-04 15:22:00,
2013-09-04 10:27:00,71.3,63.7,30.05,West,281,1.0,4.0,77,0.00,,CLR,0.00,VWS V14.01,2013-09-04 15:27:00,
2013-09-04 10:32:00,71.6,64.4,30.05,West,262,1.0,2.0,78,0.00,,CLR,0.00,VWS V14.01,2013-09-04 15:32:00,
2013-09-04 10:37:00,72.1,64.5,30.06,ESE,113,0.0,2.0,77,0.00,,CLR,0.00,VWS V14.01,2013-09-04 15:37:00,
2013-09-04 10:42:00,72.2,64.2,30.06,NE,53,5.0,6.0,76,0.00,,CLR,0.00,VWS V14.01,2013-09-04 15:42:00,
2013-09-04 10:47:00,72.4,64.4,30.06,East,80,1.0,6.0,76,0.00,,CLR,0.00,VWS V14.01,2013-09-04 15:47:00,
2013-09-04 10:52:00,72.7,64.7,30.06,ENE,64,1.0,6.0,76,0.00,,CLR,0.00,VWS V14.01,2013-09-04 15:52:00,
2013-09-04 10:57:00,73.2,64.8,30.06,NNW,345,0.0,6.0,75,0.00,,CLR,0.00,VWS V14.01,2013-09-04 15:57:00,
2013-09-04 11:02:00,73.6,64.8,30.06,NNE,21,0.0,3.0,74,0.00,,CLR,0.00,VWS V14.01,2013-09-04 16:02:00,
2013-09-04 11:07:00,73.7,64.9,30.06,NE,49,4.0,6.0,74,0.00,,CLR,0.00,VWS V14.01,2013-09-04 16:07:00,
2013-09-04 11:12:00,73.4,64.6,30.06,NNE,20,0.0,6.0,74,0.00,,CLR,0.00,VWS V14.01,2013-09-04 16:12:00,
2013-09-04 11:17:00,73.6,64.8,30.06,East,79,1.0,6.0,74,0.00,,CLR,0.00,VWS V14.01,2013-09-04 16:17:00,
2013-09-04 11:21:00,74.0,65.2,30.07,NE,38,2.0,6.0,74,0.00,,CLR,0.00,VWS V14.01,2013-09-04 16:21:00,
2013-09-04 11:26:00,74.1,64.9,30.07,ESE,115,2.0,6.0,73,0.00,,CLR,0.00,VWS V14.01,2013-09-04 16:26:00,
2013-09-04 11:31:00,74.3,65.1,30.07,NE,56,1.0,5.0,73,0.00,,SCT015,0.00,VWS V14.01,2013-09-04 16:31:00,
2013-09-04 11:36:00,74.3,65.1,30.07,NE,51,3.0,6.0,73,0.00,,BKN015,0.00,VWS V14.01,2013-09-04 16:36:00,
2013-09-04 11:41:00,74.4,65.6,30.07,North,354,3.0,7.0,74,0.00,,BKN015,0.00,VWS V14.01,2013-09-04 16:41:00,
2013-09-04 11:46:00,75.0,65.4,30.07,North,4,1.0,7.0,72,0.00,,BKN015,0.00,VWS V14.01,2013-09-04 16:46:00,
2013-09-04 11:51:00,75.1,65.5,30.07,NE,50,1.0,7.0,72,0.00,,OVC013,0.00,VWS V14.01,2013-09-04 16:51:00,
2013-09-04 11:56:00,74.8,65.2,30.07,NE,46,1.0,7.0,72,0.00,,SCT015,0.00,VWS V14.01,2013-09-04 16:56:00,
2013-09-04 12:01:00,74.6,65.4,30.07,NE,39,2.0,5.0,73,0.00,,OVC013,0.00,VWS V14.01,2013-09-04 17:01:00,
2013-09-04 12:06:00,74.6,65.0,30.08,NNW,341,1.0,5.0,72,0.00,,OVC013,0.00,VWS V14.01,2013-09-04 17:06:00,
2013-09-04 12:11:00,74.6,65.0,30.08,North,5,2.0,5.0,72,0.00,,OVC013,0.00,VWS V14.01,2013-09-04 17:11:00,
2013-09-04 12:16:00,74.7,65.5,30.07,NE,38,2.0,5.0,73,0.00,,SCT015,0.00,VWS V14.01,2013-09-04 17:16:00,
2013-09-04 12:21:00,74.5,64.9,30.07,ENE,61,1.0,6.0,72,0.00,,OVC013,0.00,VWS V14.01,2013-09-04 17:21:00,
2013-09-04 12:26:00,74.4,65.2,30.07,NW,325,1.0,6.0,73,0.00,,OVC013,0.00,VWS V14.01,2013-09-04 17:26:00,
2013-09-04 12:31:00,74.7,65.1,30.08,NNW,345,1.0,7.0,72,0.00,,OVC013,0.00,VWS V14.01,2013-09-04 17:31:00,
2013-09-04 12:36:00,75.1,65.5,30.08,NNW,345,3.0,7.0,72,0.00,,OVC013,0.00,VWS V14.01,2013-09-04 17:36:00,
2013-09-04 12:41:00,75.6,65.5,30.07,North,354,1.0,7.0,71,0.00,,OVC013,0.00,VWS V14.01,2013-09-04 17:41:00,
2013-09-04 12:46:00,75.7,65.6,30.07,ESE,102,4.0,7.0,71,0.00,,OVC013,0.00,VWS V14.01,2013-09-04 17:46:00,
2013-09-04 12:51:00,76.0,65.9,30.07,NE,34,4.0,7.0,71,0.00,,OVC015,0.00,VWS V14.01,2013-09-04 17:51:00,
2013-09-04 12:56:00,75.8,65.3,30.07,NW,323,1.0,8.0,70,0.00,,OVC013,0.00,VWS V14.01,2013-09-04 17:56:00,
2013-09-04 13:01:00,76.2,65.7,30.07,ENE,61,2.0,4.0,70,0.00,,OVC015,0.00,VWS V14.01,2013-09-04 18:01:00,
2013-09-04 13:06:00,76.3,65.0,30.07,East,89,7.0,11.0,68,0.00,,OVC015,0.00,VWS V14.01,2013-09-04 18:06:00,
2013-09-04 13:11:00,75.6,65.9,30.07,East,85,2.0,11.0,72,0.00,,OVC015,0.00,VWS V14.01,2013-09-04 18:11:00,
2013-09-04 13:16:00,76.2,65.7,30.07,NNE,30,1.0,11.0,70,0.00,,OVC013,0.00,VWS V14.01,2013-09-04 18:16:00,
2013-09-04 13:21:00,76.9,64.7,30.07,ESE,107,1.0,11.0,66,0.00,,OVC015,0.00,VWS V14.01,2013-09-04 18:21:00,
2013-09-04 13:26:00,77.0,65.2,30.07,NW,317,0.0,11.0,67,0.00,,OVC015,0.00,VWS V14.01,2013-09-04 18:26:00,
2013-09-04 13:31:00,77.4,65.2,30.06,ENE,64,2.0,3.0,66,0.00,,SCT015,0.00,VWS V14.01,2013-09-04 18:31:00,
2013-09-04 13:36:00,77.4,65.6,30.06,ENE,70,1.0,6.0,67,0.00,,CLR,0.00,VWS V14.01,2013-09-04 18:36:00,
2013-09-04 13:41:00,77.3,64.6,30.07,ENE,67,0.0,6.0,65,0.00,,CLR,0.00,VWS V14.01,2013-09-04 18:41:00,
2013-09-04 13:46:00,77.5,65.3,30.06,North,360,1.0,6.0,66,0.00,,CLR,0.00,VWS V14.01,2013-09-04 18:46:00,
2013-09-04 13:51:00,77.8,64.7,30.07,WNW,302,1.0,6.0,64,0.00,,CLR,0.00,VWS V14.01,2013-09-04 18:51:00,
2013-09-04 13:56:00,78.0,63.9,30.07,East,91,0.0,6.0,62,0.00,,SCT015,0.00,VWS V14.01,2013-09-04 18:56:00,
2013-09-04 14:01:00,78.1,63.6,30.06,NNW,343,1.0,3.0,61,0.00,,CLR,0.00,VWS V14.01,2013-09-04 19:01:00,
2013-09-04 14:06:00,78.9,63.4,30.07,East,94,2.0,3.0,59,0.00,,CLR,0.00,VWS V14.01,2013-09-04 19:06:00,
2013-09-04 14:11:00,78.9,64.8,30.06,North,11,3.0,4.0,62,0.00,,CLR,0.00,VWS V14.01,2013-09-04 19:11:00,
2013-09-04 14:16:00,79.5,65.8,30.06,East,96,1.0,4.0,63,0.00,,SCT015,0.00,VWS V14.01,2013-09-04 19:16:00,
2013-09-04 14:21:00,79.5,64.4,30.06,ENE,70,2.0,5.0,60,0.00,,CLR,0.00,VWS V14.01,2013-09-04 19:21:00,
2013-09-04 14:26:00,79.1,64.5,30.06,NE,36,1.0,6.0,61,0.00,,CLR,0.00,VWS V14.01,2013-09-04 19:26:00,
2013-09-04 14:31:00,78.8,64.2,30.06,ENE,58,1.0,6.0,61,0.00,,CLR,0.00,VWS V14.01,2013-09-04 19:31:00,
2013-09-04 14:36:00,78.8,64.7,30.06,East,90,1.0,6.0,62,0.00,,CLR,0.00,VWS V14.01,2013-09-04 19:36:00,
2013-09-04 14:41:00,78.6,63.6,30.05,ENE,58,1.0,6.0,60,0.00,,CLR,0.00,VWS V14.01,2013-09-04 19:41:00,
2013-09-04 14:46:00,78.6,65.0,30.05,ENE,72,3.0,6.0,63,0.00,,CLR,0.00,VWS V14.01,2013-09-04 19:46:00,
2013-09-04 14:51:00,78.4,64.3,30.05,NE,41,2.0,6.0,62,0.00,,CLR,0.00,VWS V14.01,2013-09-04 19:51:00,
2013-09-04 14:56:00,78.5,64.9,30.05,ENE,75,4.0,8.0,63,0.00,,CLR,0.00,VWS V14.01,2013-09-04 19:56:00,
2013-09-04 15:01:00,78.6,65.0,30.05,NE,55,1.0,8.0,63,0.00,,CLR,0.00,VWS V14.01,2013-09-04 20:01:00,
2013-09-04 15:06:00,78.4,64.8,30.05,ENE,75,5.0,8.0,63,0.00,,CLR,0.00,VWS V14.01,2013-09-04 20:06:00,
2013-09-04 15:11:00,78.2,64.6,30.05,NE,40,1.0,8.0,63,0.00,,CLR,0.00,VWS V14.01,2013-09-04 20:11:00,
2013-09-04 15:16:00,78.2,65.0,30.05,NE,44,2.0,8.0,64,0.00,,CLR,0.00,VWS V14.01,2013-09-04 20:16:00,
2013-09-04 15:21:00,77.9,64.8,30.05,ENE,70,0.0,8.0,64,0.00,,CLR,0.00,VWS V14.01,2013-09-04 20:21:00,
2013-09-04 15:26:00,78.0,65.3,30.05,NNW,341,2.0,8.0,65,0.00,,CLR,0.00,VWS V14.01,2013-09-04 20:26:00,
2013-09-04 15:31:00,77.8,64.2,30.05,NNE,20,1.0,3.0,63,0.00,,SCT025,0.00,VWS V14.01,2013-09-04 20:31:00,
2013-09-04 15:36:00,77.5,64.4,30.05,NNW,333,0.0,3.0,64,0.00,,SCT025,0.00,VWS V14.01,2013-09-04 20:36:00,
2013-09-04 15:41:00,77.4,64.3,30.05,ENE,70,1.0,4.0,64,0.00,,SCT025,0.00,VWS V14.01,2013-09-04 20:41:00,
2013-09-04 15:46:00,77.5,64.8,30.05,ENE,58,0.0,5.0,65,0.00,,SCT025,0.00,VWS V14.01,2013-09-04 20:46:00,
2013-09-04 15:51:00,77.4,64.3,30.05,NNW,336,1.0,5.0,64,0.00,,SCT027,0.00,VWS V14.01,2013-09-04 20:51:00,
2013-09-04 15:56:00,77.3,64.2,30.05,East,95,1.0,5.0,64,0.00,,SCT025,0.00,VWS V14.01,2013-09-04 20:56:00,
2013-09-04 16:01:00,77.4,64.3,30.05,NE,41,2.0,6.0,64,0.00,,SCT027,0.00,VWS V14.01,2013-09-04 21:01:00,
2013-09-04 16:06:00,77.5,64.4,30.05,NNE,18,1.0,6.0,64,0.00,,SCT027,0.00,VWS V14.01,2013-09-04 21:06:00,
2013-09-04 16:11:00,77.9,65.2,30.05,ESE,107,0.0,6.0,65,0.00,,SCT027,0.00,VWS V14.01,2013-09-04 21:11:00,
2013-09-04 16:16:00,78.2,64.1,30.05,ESE,117,0.0,6.0,62,0.00,,SCT025,0.00,VWS V14.01,2013-09-04 21:16:00,
2013-09-04 16:21:00,78.2,64.1,30.05,NE,53,0.0,6.0,62,0.00,,SCT027,0.00,VWS V14.01,2013-09-04 21:21:00,
2013-09-04 16:26:00,77.9,63.8,30.05,NE,41,0.0,6.0,62,0.00,,SCT027,0.00,VWS V14.01,2013-09-04 21:26:00,
2013-09-04 16:31:00,77.8,64.2,30.05,North,6,4.0,7.0,63,0.00,,CLR,0.00,VWS V14.01,2013-09-04 21:31:00,
2013-09-04 16:36:00,77.7,63.7,30.05,North,349,2.0,7.0,62,0.00,,CLR,0.00,VWS V14.01,2013-09-04 21:36:00,
2013-09-04 16:41:00,77.6,63.6,30.05,ENE,64,2.0,7.0,62,0.00,,CLR,0.00,VWS V14.01,2013-09-04 21:41:00,
2013-09-04 16:46:00,77.7,63.2,30.05,ESE,110,2.0,7.0,61,0.00,,CLR,0.00,VWS V14.01,2013-09-04 21:46:00,
2013-09-04 16:51:00,78.1,63.1,30.05,ESE,105,1.0,7.0,60,0.00,,CLR,0.00,VWS V14.01,2013-09-04 21:51:00,
2013-09-04 16:56:00,78.4,61.9,30.05,North,349,3.0,7.0,57,0.00,,CLR,0.00,VWS V14.01,2013-09-04 21:56:00,
2013-09-04 17:01:00,78.4,62.4,30.05,NE,39,1.0,4.0,58,0.00,,CLR,0.00,VWS V14.01,2013-09-04 22:01:00,
2013-09-04 17:06:00,78.0,61.5,30.05,WNW,302,3.0,4.0,57,0.00,,CLR,0.00,VWS V14.01,2013-09-04 22:06:00,
2013-09-04 17:11:00,77.6,59.7,30.05,NE,56,0.0,4.0,54,0.00,,CLR,0.00,VWS V14.01,2013-09-04 22:11:00,
2013-09-04 17:16:00,77.4,59.0,30.05,ENE,74,0.0,4.0,53,0.00,,CLR,0.00,VWS V14.01,2013-09-04 22:16:00,
2013-09-04 17:21:00,77.5,60.6,30.05,East,81,0.0,4.0,56,0.00,,CLR,0.00,VWS V14.01,2013-09-04 22:21:00,
2013-09-04 17:26:00,77.5,59.6,30.05,North,349,0.0,4.0,54,0.00,,CLR,0.00,VWS V14.01,2013-09-04 22:26:00,
2013-09-04 17:31:00,77.3,60.4,30.05,NNW,327,1.0,3.0,56,0.00,,CLR,0.00,VWS V14.01,2013-09-04 22:31:00,
2013-09-04 17:36:00,77.3,60.4,30.05,NE,55,2.0,3.0,56,0.00,,CLR,0.00,VWS V14.01,2013-09-04 22:36:00,
2013-09-04 17:41:00,77.7,61.3,30.05,NE,42,0.0,3.0,57,0.00,,CLR,0.00,VWS V14.01,2013-09-04 22:41:00,
2013-09-04 17:46:00,78.0,61.0,30.05,NE,36,0.0,3.0,56,0.00,,CLR,0.00,VWS V14.01,2013-09-04 22:46:00,
2013-09-04 17:51:00,78.1,60.6,30.05,ESE,102,0.0,3.0,55,0.00,,CLR,0.00,VWS V14.01,2013-09-04 22:51:00,
2013-09-04 17:56:00,78.1,61.1,30.05,NE,55,0.0,3.0,56,0.00,,CLR,0.00,VWS V14.01,2013-09-04 22:56:00,
2013-09-04 18:01:00,78.1,60.6,30.05,ESE,120,0.0,1.0,55,0.00,,CLR,0.00,VWS V14.01,2013-09-04 23:01:00,
2013-09-04 18:06:00,78.1,60.1,30.05,ENE,60,0.0,3.0,54,0.00,,CLR,0.00,VWS V14.01,2013-09-04 23:06:00,
2013-09-04 18:11:00,77.7,59.8,30.05,East,85,0.0,4.0,54,0.00,,CLR,0.00,VWS V14.01,2013-09-04 23:11:00,
2013-09-04 18:16:00,77.3,58.8,30.06,North,349,0.0,4.0,53,0.00,,CLR,0.00,VWS V14.01,2013-09-04 23:16:00,
2013-09-04 18:21:00,76.9,58.5,30.06,North,6,0.0,4.0,53,0.00,,CLR,0.00,VWS V14.01,2013-09-04 23:21:00,
2013-09-04 18:26:00,76.6,58.7,30.06,East,86,0.0,4.0,54,0.00,,CLR,0.00,VWS V14.01,2013-09-04 23:26:00,
2013-09-04 18:31:00,76.4,59.6,30.06,WNW,302,0.0,3.0,56,0.00,,CLR,0.00,VWS V14.01,2013-09-04 23:31:00,
2013-09-04 18:36:00,76.1,59.8,30.06,SE,125,1.0,3.0,57,0.00,,CLR,0.00,VWS V14.01,2013-09-04 23:36:00,
2013-09-04 18:41:00,75.9,61.0,30.06,ENE,77,0.0,3.0,60,0.00,,CLR,0.00,VWS V14.01,2013-09-04 23:41:00,
2013-09-04 18:46:00,75.5,61.1,30.06,NNE,32,2.0,3.0,61,0.00,,CLR,0.00,VWS V14.01,2013-09-04 23:46:00,
2013-09-04 18:51:00,75.0,61.1,30.06,East,101,0.0,3.0,62,0.00,,CLR,0.00,VWS V14.01,2013-09-04 23:51:00,
2013-09-04 18:56:00,74.6,61.2,30.06,SSW,207,0.0,3.0,63,0.00,,CLR,0.00,VWS V14.01,2013-09-04 23:56:00,
2013-09-04 19:01:00,74.1,61.2,30.06,ESE,107,0.0,1.0,64,0.00,,CLR,0.00,VWS V14.01,2013-09-05 00:01:00,
2013-09-04 19:06:00,73.7,61.2,30.06,ESE,107,0.0,1.0,65,0.00,,CLR,0.00,VWS V14.01,2013-09-05 00:06:00,
2013-09-04 19:11:00,73.3,61.3,30.06,NE,53,1.0,1.0,66,0.00,,CLR,0.00,VWS V14.01,2013-09-05 00:11:00,
2013-09-04 19:16:00,72.8,61.6,30.06,ESE,103,0.0,3.0,68,0.00,,CLR,0.00,VWS V14.01,2013-09-05 00:16:00,
2013-09-04 19:21:00,72.4,61.7,30.06,WSW,250,0.0,3.0,69,0.00,,CLR,0.00,VWS V14.01,2013-09-05 00:21:00,
2013-09-04 19:26:00,72.0,61.7,30.06,NE,49,0.0,3.0,70,0.00,,CLR,0.00,VWS V14.01,2013-09-05 00:26:00,
2013-09-04 19:31:00,71.6,61.7,30.06,ESE,102,0.0,1.0,71,0.00,,CLR,0.00,VWS V14.01,2013-09-05 00:31:00,
2013-09-04 19:36:00,71.3,61.4,30.06,ESE,103,0.0,1.0,71,0.00,,CLR,0.00,VWS V14.01,2013-09-05 00:36:00,
2013-09-04 19:41:00,70.9,61.0,30.06,East,89,0.0,1.0,71,0.00,,CLR,0.00,VWS V14.01,2013-09-05 00:41:00,
2013-09-04 19:46:00,70.5,60.7,30.06,ENE,60,0.0,2.0,71,0.00,,CLR,0.00,VWS V14.01,2013-09-05 00:46:00,
2013-09-04 19:51:00,70.0,60.2,30.06,ENE,60,0.0,2.0,71,0.00,,CLR,0.00,VWS V14.01,2013-09-05 00:51:00,
2013-09-04 19:56:00,69.6,59.8,30.06,ENE,61,0.0,2.0,71,0.00,,CLR,0.00,VWS V14.01,2013-09-05 00:56:00,
2013-09-04 20:01:00,69.2,59.4,30.07,ENE,68,0.0,1.0,71,0.00,,CLR,0.00,VWS V14.01,2013-09-05 01:01:00,
2013-09-04 20:06:00,68.8,59.0,30.07,ENE,68,0.0,1.0,71,0.00,,CLR,0.00,VWS V14.01,2013-09-05 01:06:00,
2013-09-04 20:11:00,68.4,59.0,30.07,ENE,68,0.0,1.0,72,0.00,,CLR,0.00,VWS V14.01,2013-09-05 01:11:00,
2013-09-04 20:16:00,68.0,58.7,30.07,ENE,68,0.0,1.0,72,0.00,,CLR,0.00,VWS V14.01,2013-09-05 01:16:00,
2013-09-04 20:21:00,67.8,58.5,30.07,ENE,68,0.0,1.0,72,0.00,,CLR,0.00,VWS V14.01,2013-09-05 01:21:00,
2013-09-04 20:26:00,67.5,58.2,30.08,ENE,68,0.0,1.0,72,0.00,,CLR,0.00,VWS V14.01,2013-09-05 01:26:00,
2013-09-04 20:31:00,67.3,58.4,30.08,ENE,68,0.0,0.0,73,0.00,,CLR,0.00,VWS V14.01,2013-09-05 01:31:00,
2013-09-04 20:36:00,67.0,58.1,30.08,ENE,68,0.0,0.0,73,0.00,,CLR,0.00,VWS V14.01,2013-09-05 01:36:00,
2013-09-04 20:41:00,66.7,58.2,30.08,ENE,68,0.0,0.0,74,0.00,,CLR,0.00,VWS V14.01,2013-09-05 01:41:00,
2013-09-04 20:46:00,66.4,57.9,30.08,ENE,68,0.0,0.0,74,0.00,,CLR,0.00,VWS V14.01,2013-09-05 01:46:00,
2013-09-04 20:51:00,66.2,58.0,30.08,ENE,68,0.0,0.0,75,0.00,,CLR,0.00,VWS V14.01,2013-09-05 01:51:00,
2013-09-04 20:56:00,66.1,58.0,30.08,ENE,68,0.0,0.0,75,0.00,,CLR,0.00,VWS V14.01,2013-09-05 01:56:00,
2013-09-04 21:01:00,65.9,57.8,30.08,ENE,68,0.0,0.0,75,0.00,,CLR,0.00,VWS V14.01,2013-09-05 02:01:00,
2013-09-04 21:06:00,65.8,57.7,30.08,ENE,68,0.0,0.0,75,0.00,,CLR,0.00,VWS V14.01,2013-09-05 02:06:00,
2013-09-04 21:11:00,65.5,57.4,30.09,ENE,68,0.0,0.0,75,0.00,,CLR,0.00,VWS V14.01,2013-09-05 02:11:00,
2013-09-04 21:16:00,65.4,57.3,30.09,ENE,68,0.0,0.0,75,0.00,,CLR,0.00,VWS V14.01,2013-09-05 02:16:00,
2013-09-04 21:21:00,65.3,57.2,30.09,ENE,68,0.0,0.0,75,0.00,,CLR,0.00,VWS V14.01,2013-09-05 02:21:00,
2013-09-04 21:26:00,65.2,57.1,30.09,ENE,68,0.0,1.0,75,0.00,,CLR,0.00,VWS V14.01,2013-09-05 02:26:00,
2013-09-04 21:31:00,65.1,57.0,30.09,ENE,68,0.0,0.0,75,0.00,,CLR,0.00,VWS V14.01,2013-09-05 02:31:00,
2013-09-04 21:36:00,65.0,56.9,30.09,ENE,77,0.0,1.0,75,0.00,,CLR,0.00,VWS V14.01,2013-09-05 02:36:00,
2013-09-04 21:41:00,65.0,56.9,30.09,East,79,0.0,2.0,75,0.00,,CLR,0.00,VWS V14.01,2013-09-05 02:41:00,
2013-09-04 21:46:00,65.0,56.5,30.09,ENE,75,2.0,2.0,74,0.00,,CLR,0.00,VWS V14.01,2013-09-05 02:46:00,
2013-09-04 21:51:00,65.2,56.7,30.10,ENE,77,2.0,3.0,74,0.00,,CLR,0.00,VWS V14.01,2013-09-05 02:51:00,
2013-09-04 21:56:00,65.2,56.7,30.10,East,82,0.0,3.0,74,0.00,,CLR,0.00,VWS V14.01,2013-09-05 02:56:00,
2013-09-04 22:01:00,65.1,56.6,30.10,East,82,0.0,0.0,74,0.00,,CLR,0.00,VWS V14.01,2013-09-05 03:01:00,
2013-09-04 22:06:00,65.1,56.6,30.09,ENE,76,1.0,2.0,74,0.00,,CLR,0.00,VWS V14.01,2013-09-05 03:06:00,
2013-09-04 22:11:00,65.0,56.5,30.10,ENE,76,2.0,3.0,74,0.00,,CLR,0.00,VWS V14.01,2013-09-05 03:11:00,
2013-09-04 22:16:00,64.9,56.4,30.10,ENE,77,1.0,3.0,74,0.00,,CLR,0.00,VWS V14.01,2013-09-05 03:16:00,
2013-09-04 22:21:00,64.9,56.4,30.10,ENE,68,0.0,3.0,74,0.00,,CLR,0.00,VWS V14.01,2013-09-05 03:21:00,
2013-09-04 22:26:00,64.8,56.7,30.10,East,79,2.0,3.0,75,0.00,,CLR,0.00,VWS V14.01,2013-09-05 03:26:00,
2013-09-04 22:31:00,64.7,56.6,30.10,ENE,77,1.0,2.0,75,0.00,,CLR,0.00,VWS V14.01,2013-09-05 03:31:00,
2013-09-04 22:36:00,64.6,56.5,30.10,East,82,0.0,2.0,75,0.00,,CLR,0.00,VWS V14.01,2013-09-05 03:36:00,
2013-09-04 22:41:00,64.5,56.4,30.10,East,93,0.0,2.0,75,0.00,,CLR,0.00,VWS V14.01,2013-09-05 03:41:00,
2013-09-04 22:46:00,64.5,56.4,30.10,East,88,0.0,2.0,75,0.00,,CLR,0.00,VWS V14.01,2013-09-05 03:46:00,
2013-09-04 22:51:00,64.5,56.4,30.10,ENE,76,2.0,3.0,75,0.00,,CLR,0.00,VWS V14.01,2013-09-05 03:51:00,
2013-09-04 22:56:00,64.4,56.3,30.10,East,91,1.0,3.0,75,0.00,,CLR,0.00,VWS V14.01,2013-09-05 03:56:00,
2013-09-04 23:01:00,64.4,56.7,30.11,ENE,75,1.0,2.0,76,0.00,,CLR,0.00,VWS V14.01,2013-09-05 04:01:00,
2013-09-04 23:06:00,64.2,56.5,30.11,East,84,0.0,2.0,76,0.00,,CLR,0.00,VWS V14.01,2013-09-05 04:06:00,
2013-09-04 23:11:00,64.1,56.4,30.11,East,88,0.0,2.0,76,0.00,,CLR,0.00,VWS V14.01,2013-09-05 04:11:00,
2013-09-04 23:16:00,64.0,56.7,30.11,East,84,0.0,2.0,77,0.00,,CLR,0.00,VWS V14.01,2013-09-05 04:16:00,
2013-09-04 23:21:00,63.8,56.5,30.11,East,83,0.0,2.0,77,0.00,,CLR,0.00,VWS V14.01,2013-09-05 04:21:00,
2013-09-04 23:26:00,63.6,56.3,30.11,East,83,0.0,2.0,77,0.00,,CLR,0.00,VWS V14.01,2013-09-05 04:26:00,
2013-09-04 23:31:00,63.4,56.4,30.11,East,94,0.0,1.0,78,0.00,,CLR,0.00,VWS V14.01,2013-09-05 04:31:00,
2013-09-04 23:36:00,63.3,56.3,30.12,East,96,0.0,1.0,78,0.00,,SCT120,0.00,VWS V14.01,2013-09-05 04:36:00,
2013-09-04 23:41:00,63.2,56.2,30.12,East,95,0.0,1.0,78,0.00,,SCT120,0.00,VWS V14.01,2013-09-05 04:41:00,
2013-09-04 23:46:00,63.0,56.4,30.12,East,95,0.0,1.0,79,0.00,,SCT120,0.00,VWS V14.01,2013-09-05 04:46:00,
2013-09-04 23:51:00,62.9,56.3,30.12,East,95,0.0,1.0,79,0.00,,SCT120,0.00,VWS V14.01,2013-09-05 04:51:00,
2013-09-04 23:56:00,62.7,56.5,30.12,East,95,0.0,1.0,80,0.00,,CLR,0.00,VWS V14.01,2013-09-05 04:56:00,
2013-09-04 23:57:00,62.7,56.5,30.12,East,95,0.0,1.0,80,0.00,,SCT120,0.00,VWS V14.01,2013-09-05 04:57:00,